This is the latest recevied weather packets stored in our database for station/object IZ1UQG-1. If no packets are shown the sender has not sent any weather packets the latest 10 day(s).
| Time | Temp. | Humidity | Pressure | Rain* | Wind** | Luminosity | Snow |
|---|---|---|---|---|---|---|---|
| 1777917537 | 22.22° C | 44% | 1014.2 hPa | 133.6 mm | - | - | - |
| 1777917237 | 22.78° C | 44% | 1014.1 hPa | 194.82 mm | - | - | - |
| 1777916937 | 22.78° C | 44% | 1013.9 hPa | 156.46 mm | - | - | - |
| 1777916637 | 22.78° C | 43% | 1014 hPa | 130.05 mm | - | - | - |
| 1777916337 | 22.78° C | 43% | 1014 hPa | 101.09 mm | - | - | - |
| 1777916037 | 22.78° C | 43% | 1013.8 hPa | 127 mm | - | - | - |
| 1777915737 | 22.78° C | 43% | 1013.7 hPa | 133.1 mm | - | - | - |
| 1777915437 | 22.78° C | 43% | 1013.8 hPa | 139.95 mm | - | - | - |
| 1777915137 | 23.33° C | 43% | 1013.7 hPa | 62.23 mm | - | - | - |
| 1777914837 | 23.33° C | 43% | 1013.8 hPa | 104.14 mm | - | - | - |
| 1777914537 | 23.33° C | 43% | 1013.7 hPa | 88.65 mm | - | - | - |
| 1777914237 | 23.33° C | 42% | 1013.8 hPa | 82.8 mm | - | - | - |
| 1777913937 | 23.89° C | 42% | 1013.6 hPa | 7.37 mm | - | - | - |
| 1777913637 | 23.89° C | 42% | 1013.8 hPa | 12.95 mm | - | - | - |
| 1777913337 | 23.89° C | 42% | 1013.9 hPa | 253.49 mm | - | - | - |
| 1777913037 | 23.89° C | 42% | 1013.8 hPa | 229.62 mm | - | - | - |
| 1777912737 | 23.89° C | 41% | 1013.8 hPa | 164.85 mm | - | - | - |
| 1777912437 | 23.89° C | 41% | 1013.7 hPa | 133.35 mm | - | - | - |
| 1777912137 | 24.44° C | 40% | 1013.7 hPa | 114.05 mm | - | - | - |
| 1777911837 | 24.44° C | 41% | 1013.8 hPa | 71.63 mm | - | - | - |
| 1777911537 | 24.44° C | 41% | 1013.9 hPa | 12.19 mm | - | - | - |
| 1777911237 | 24.44° C | 41% | 1013.9 hPa | 228.85 mm | - | - | - |
| 1777910937 | 24.44° C | 40% | 1013.8 hPa | 201.93 mm | - | - | - |
| 1777910637 | 24.44° C | 40% | 1013.8 hPa | 201.93 mm | - | - | - |
| 1777910337 | 24.44° C | 41% | 1013.8 hPa | 182.63 mm | - | - | - |
* Rain latest hour (hover to see other rain measurements)
** Current wind speed in m/s (hover to see current wind gust speed)